Погода в Усть-Катуни

Россия / Алтайский край     52°25′07″N   85°03′29″E
темп.,
°C
ветер,
м/с
пор.,
м/с
влажн.,
%
обл.,
%
осадки,
мм/ч
давл.,
гПа
погр.,
м
21 мая, сб
сб2101:00+14юз36556 0.0 101676
04:00+13ююз3660100 0.0 101683
07:00+14з24665 0.0 1017128
10:00+21юз124363 0.0 1016436
13:00+24юв22345 0.0 10141215
16:00+26всв34340 0.0 10121374
19:00+24всв47470 0.0 1010306
22:00+18всв410605 0.0 1009145
22 мая, вс
вс2201:00+16всв4136165 0.0 1006208
04:00+15всв41158100 0.0 1003176
07:00+15в3767100 0.0 1002150
10:00+21ююв3455100 0.0 1002315
13:00+25з254297 0.0 1002694
16:00+24всв3552100 0.0 1002110
19:00+22вюв236022 0.1 100271
22:00+20в336655 0.0 100418
23 мая, пн
пн2301:00+19з81468100 0.1 1008620
04:00+15з81365100 0.5 1015850
07:00+14зюз3763100 0.5 1019303
10:00+16зсз3438100 0.0 10221170
13:00+16юв3345100 0.0 10221170
16:00+18вюв44520 0.0 10211253
19:00+16в55590 0.0 1021815
22:00+11в48790 0.0 1021176
24 мая, вт
вт2401:00+9всв37841 0.0 1020129
04:00+8всв35920 0.0 101992
07:00+10всв358245 0.0 1019167
10:00+16всв3461100 0.0 1018491
13:00+21св3451100 0.0 1016892
16:00+23св4446100 0.0 10151405
19:00+22ссв3653100 0.0 1014197
22:00+17ссв3659100 0.0 101585
25 мая, ср
ср2501:00+16св3655100 0.0 1015110
04:00+14св3453100 0.0 101562
07:00+14ссв37642 0.0 1015176
10:00+20св34490 0.0 1015484
13:00+25всв56490 0.0 10141056
16:00+27всв57480 0.0 10131633
19:00+26вюв35550 0.0 1013477
22:00+19св226812 0.0 101313